sat.trackr.live / text

‹ back to catalog

SJ-11-01

NORAD 36088 · 2009-061A

PAYLOAD ACTIVE UNKNOWN

§ Identity

Operator
Country
PRC
Launch date
2009-11-12
Launch site
JSC
Launch vehicle
Mass (kg)
RCS (m²)
2.28

External: N2YO · Heavens-Above · Gunter

§ Orbital elements

Epoch: 2026-05-25T04:01:31.493568Z

Period
98.38 min
Inclination
98.0045°
Eccentricity
0.0012312
Mean motion
14.63666524 rev/d
Perigee alt
672.7 km
Apogee alt
690.1 km
Semi-major
7,059.5 km
B*
1.3662e-4
RAAN
126.8094°
Arg perigee
94.1193°
Mean anomaly
36.4068°
Rev number
88,112

§ Raw data

SJ-11-011 36088U 09061A   26145.16772562  .00000665  00000+0  13662-3 0  99922 36088  98.0045 126.8094 0012312  94.1193  36.4068 14.63666524881129

JSON: /api/v1/satellites/36088 · /tle

For live sub-satellite position, see the globe view (requires WebGL).

§ Visibility from observer

Set your observer location to see the next 7 days of passes ≥ 10°. The values pass through the URL so the page stays shareable.

No JS? Fill the form by hand. The geolocation button needs JavaScript.